Duluth, MN

1:33 AM CDT on March 30, 2017 (GMT -0500)
Duluth International

Weather History for KDLH - October, 2012

Change the Weather History Date:

Saturday, October 6, 2012

  Actual Average Record
Temperature  
Mean Temperature 35 °F 47 °F  
Max Temperature 43 °F 56 °F 83 °F (1961)
Min Temperature 27 °F 38 °F 23 °F (1935)
Degree Days  
Heating Degree Days 30 18  
Month to date heating degree days 108 102  
Since 1 July heating degree days 436 549  
Cooling Degree Days 0 0  
Month to date cooling degree days 0 0  
Year to date cooling degree days 409 204  
Moisture  
Dew Point 25 °F    
Average Humidity 63    
Maximum Humidity 82    
Minimum Humidity 43    
Precipitation  
Precipitation T in 0.11 in 2.06 in (1982)
Month to date precipitation T 0.68  
Year to date precipitation 29.09 25.49  
Snow  
Snow T in 0.00 in 0.10 in (1974)
Month to date snowfall T 0.1  
Since 1 July snowfall 0.1 0.2  
Since 1 September snowfall 0.1 0.2  
Snow Depth 0.00 in    
Sea Level Pressure  
Sea Level Pressure 30.20 in    
Wind  
Wind Speed 9 mph (NW)    
Max Wind Speed 17 mph    
Max Gust Speed 24 mph    
Visibility 10 miles    
Events Snow    
T = Trace of Precipitation, MM = Missing Value Source: NWS Daily Summary

Daily Weather History Graph

Daily Weather History Graph

Search for Another Location

Airport or City:

Trip Planner

Search our weather history database for the weather conditions in past years. The results will help you decide how hot, cold, wet, or windy it might be!

Date:

Astronomy

Oct. 06, 2012 Rise Set
Actual Time 7:14 AM CDT 6:37 PM CDT
Civil Twilight 6:44 AM CDT 7:07 PM CDT
Nautical Twilight 6:09 AM CDT 7:43 PM CDT
Astronomical Twilight 5:33 AM CDT 8:18 PM CDT
Moon 10:36 PM CDT (10/6) 1:27 PM CDT (10/6)
Length of Visible Light 12h 23m
Length of Day
11h 22m
Waning Gibbous, 65% of the Moon is Illuminated
Oct 6
Waning Gibbous
Oct 8
Last Quarter
Oct 15
New
Oct 21
First Quarter
Oct 29
Full

Hourly Weather History & Observations

Time (CDT) Temp. Windchill Dew Point Humidity Pressure Visibility Wind Dir Wind Speed Gust Speed Precip Events Conditions
12:55 AM 34.0 °F 26.0 °F 28.9 °F 82% 30.10 in 9.0 mi NNW 10.4 mph 18.4 mph 0.00 in Snow Light Snow
1:55 AM 34.0 °F 26.0 °F 28.9 °F 82% 30.11 in 9.0 mi NNW 10.4 mph - 0.00 in Snow Light Snow
2:55 AM 34.0 °F 26.0 °F 28.0 °F 79% 30.12 in 10.0 mi NNW 10.4 mph - 0.00 in   Overcast
3:55 AM 34.0 °F 26.6 °F 28.0 °F 79% 30.14 in 10.0 mi NNW 9.2 mph 18.4 mph N/A   Overcast
4:55 AM 33.1 °F 24.9 °F 28.0 °F 82% 30.16 in 10.0 mi NNW 10.4 mph 18.4 mph N/A   Overcast
5:55 AM 33.1 °F 26.1 °F 28.0 °F 82% 30.17 in 10.0 mi NW 8.1 mph - N/A   Overcast
6:36 AM 33.8 °F 28.6 °F 28.4 °F 81% 30.13 in 9.0 mi NW 5.8 mph - N/A Snow Light Snow
6:55 AM 34.0 °F 27.2 °F 27.0 °F 75% 30.19 in 10.0 mi NW 8.1 mph - 0.00 in   Overcast
7:47 AM 33.8 °F 25.8 °F 26.6 °F 75% 30.15 in 10.0 mi NNW 10.4 mph 18.4 mph N/A   Mostly Cloudy
7:55 AM 34.0 °F 26.0 °F 26.1 °F 73% 30.21 in 10.0 mi NNW 10.4 mph - N/A   Mostly Cloudy
8:55 AM 35.1 °F 27.4 °F 27.0 °F 72% 30.23 in 10.0 mi NNW 10.4 mph 17.3 mph N/A   Mostly Cloudy
9:02 AM 35.6 °F 28.0 °F 26.6 °F 70% 30.18 in 10.0 mi NW 10.4 mph 18.4 mph N/A   Mostly Cloudy
9:55 AM 37.9 °F 29.2 °F 26.1 °F 62% 30.25 in 10.0 mi North 15.0 mph - N/A   Scattered Clouds
10:55 AM 39.9 °F 32.1 °F 26.1 °F 58% 30.26 in 10.0 mi NNW 13.8 mph 18.4 mph N/A   Scattered Clouds
11:55 AM 37.9 °F 30.0 °F 26.1 °F 62% 30.26 in 9.0 mi NNW 12.7 mph 16.1 mph 0.00 in   Overcast
12:55 PM 39.9 °F 32.9 °F 19.0 °F 43% 30.26 in 10.0 mi NNW 11.5 mph - N/A   Overcast
1:55 PM 39.9 °F 33.4 °F 19.0 °F 43% 30.25 in 10.0 mi NNW 10.4 mph 17.3 mph N/A   Overcast
2:55 PM 39.9 °F 32.9 °F 19.9 °F 45% 30.24 in 10.0 mi NNW 11.5 mph - N/A   Overcast
3:55 PM 41.0 °F 36.4 °F 21.0 °F 45% 30.23 in 10.0 mi NW 6.9 mph - N/A   Overcast
4:55 PM 42.8 °F 37.0 °F 21.2 °F 42% 30.17 in 9.0 mi NW 10.4 mph - N/A   Mostly Cloudy
5:55 PM 42.1 °F 37.1 °F 21.0 °F 43% 30.22 in 10.0 mi NNW 8.1 mph - N/A   Mostly Cloudy
6:55 PM 39.9 °F 35.8 °F 23.0 °F 51% 30.22 in 10.0 mi WNW 5.8 mph - N/A   Mostly Cloudy
7:55 PM 36.0 °F 32.1 °F 23.0 °F 59% 30.22 in 10.0 mi WNW 4.6 mph - N/A   Mostly Cloudy
8:55 PM 35.1 °F 31.0 °F 23.0 °F 61% 30.22 in 10.0 mi WNW 4.6 mph - N/A   Mostly Cloudy
9:55 PM 30.0 °F 23.2 °F 21.9 °F 72% 30.23 in 10.0 mi West 6.9 mph - N/A   Partly Cloudy
10:55 PM 34.0 °F 28.0 °F 23.0 °F 64% 30.21 in 10.0 mi WNW 6.9 mph - N/A   Clear
11:55 PM 28.9 °F 22.8 °F 21.9 °F 75% 30.21 in 10.0 mi West 5.8 mph - N/A   Clear